Tracking 35331 objects as of 16-Sep-2026
HD Live streaming from Space Station
objects crossing your sky now

STARLINK-3917

Track STARLINK-3917 now!
10-day predictions
STARLINK-3917 is classified as:


NORAD ID: 52588
Int'l Code: 2022-051BE
Launch date: May 13, 2022
Source: United States (US)
Launch site: AIR FORCE WESTERN TEST RANGE (AFWTR)
Your satellite tracking list
Your tracking list is empty




NASA's NSSDC Master Catalog

Two Line Element Set (TLE):
1 52588U 22051BE  26259.21682099  .00001123  00000-0  43104-4 0  9992
2 52588  53.1627 338.1539 0001238  66.1965 293.9168 15.35401881240429
Source of the keplerian elements: AFSPC